| time (UTC) | temp F | wind direction | speed MPH | gust MPH | rain 1hr in | rain 24hr in | rain mn in | humidity % | barometer mb |
| 20260507191029 | 56 | 341 | 3.0 | 5.0 | 0.00 | 0.00 | 0.00 | 45 | 679.6 |
| 20260507190029 | 57 | 312 | 2.0 | 5.0 | 0.00 | 0.00 | 0.00 | 44 | 679.7 |
| 20260507185029 | 57 | 316 | 2.0 | 8.0 | 0.00 | 0.00 | 0.00 | 44 | 679.7 |
| 20260507184029 | 57 | 244 | 2.0 | 5.0 | 0.00 | 0.00 | 0.00 | 43 | 679.7 |
| 20260507183030 | 58 | 331 | 2.0 | 4.0 | 0.00 | 0.00 | 0.00 | 42 | 679.7 |
| 20260507182110 | 58 | 325 | 2.0 | 7.0 | 0.00 | 0.00 | 0.00 | 42 | 679.7 |
| 20260507181030 | 59 | 328 | 3.0 | 5.0 | 0.00 | 0.00 | 0.00 | 42 | 679.7 |
| 20260507180030 | 59 | 333 | 3.0 | 7.0 | 0.00 | 0.00 | 0.00 | 42 | 679.7 |
| 20260507175031 | 59 | 330 | 3.0 | 8.0 | 0.00 | 0.00 | 0.00 | 42 | 679.7 |
| 20260507174031 | 59 | 4 | 3.0 | 7.0 | 0.00 | 0.00 | 0.00 | 42 | 679.7 |
| 20260507173031 | 59 | 333 | 5.0 | 8.0 | 0.00 | 0.00 | 0.00 | 44 | 679.7 |
| 20260507172031 | 60 | 335 | 4.0 | 7.0 | 0.00 | 0.00 | 0.00 | 43 | 679.7 |
| 20260507171031 | 60 | 312 | 3.0 | 11.0 | 0.00 | 0.00 | 0.00 | 43 | 679.8 |
| 20260507170031 | 59 | 316 | 2.0 | 8.0 | 0.00 | 0.00 | 0.00 | 45 | 679.7 |
| 20260507165031 | 58 | 324 | 3.0 | 6.0 | 0.00 | 0.00 | 0.00 | 46 | 679.7 |
| 20260507164032 | 58 | 323 | 3.0 | 5.0 | 0.00 | 0.00 | 0.00 | 45 | 679.7 |
| 20260507163032 | 59 | 345 | 3.0 | 5.0 | 0.00 | 0.00 | 0.00 | 43 | 679.7 |
| 20260507162032 | 59 | 336 | 3.0 | 6.0 | 0.00 | 0.00 | 0.00 | 43 | 679.7 |
| 20260507161032 | 60 | 333 | 3.0 | 7.0 | 0.00 | 0.00 | 0.00 | 41 | 679.8 |
| 20260507160032 | 62 | 344 | 2.0 | 4.0 | 0.00 | 0.00 | 0.00 | 42 | 679.8 |
| 20260507155032 | 62 | 318 | 3.0 | 6.0 | 0.00 | 0.00 | 0.00 | 43 | 679.8 |
| 20260507154017 | 62 | 325 | 2.0 | 4.0 | 0.00 | 0.00 | 0.00 | 41 | 679.8 |
| 20260507153017 | 62 | 331 | 3.0 | 6.0 | 0.00 | 0.00 | 0.00 | 43 | 679.8 |
| 20260507152017 | 62 | 301 | 2.0 | 5.0 | 0.00 | 0.00 | 0.00 | 43 | 679.8 |
| 20260507151017 | 62 | 343 | 3.0 | 6.0 | 0.00 | 0.00 | 0.00 | 43 | 679.8 |
| 20260507150038 | 61 | 342 | 3.0 | 6.0 | 0.00 | 0.00 | 0.00 | 45 | 679.8 |
| 20260507145017 | 60 | 294 | 2.0 | 4.0 | 0.00 | 0.00 | 0.00 | 48 | 679.7 |
| 20260507144018 | 59 | 337 | 2.0 | 6.0 | 0.00 | 0.00 | 0.00 | 51 | 679.6 |
| 20260507143018 | 57 | 353 | 3.0 | 5.0 | 0.00 | 0.00 | 0.00 | 53 | 679.6 |
| 20260507142018 | 55 | 319 | 3.0 | 6.0 | 0.00 | 0.00 | 0.00 | 59 | 679.6 |
| 20260507141038 | 53 | 270 | 1.0 | 2.0 | 0.00 | 0.00 | 0.00 | 62 | 679.5 |
| 20260507140018 | 51 | 331 | 2.0 | 4.0 | 0.00 | 0.00 | 0.00 | 64 | 679.5 |
| 20260507135018 | 50 | 315 | 3.0 | 7.0 | 0.00 | 0.00 | 0.00 | 66 | 679.5 |
| 20260507134004 | 49 | 345 | 3.0 | 6.0 | 0.00 | 0.00 | 0.00 | 67 | 679.4 |
| 20260507133035 | 48 | 326 | 2.0 | 3.0 | 0.00 | 0.00 | 0.00 | 70 | 679.4 |
| 20260507132019 | 47 | 326 | 1.0 | 3.0 | 0.00 | 0.00 | 0.00 | 71 | 679.4 |
| 20260507131019 | 45 | 192 | 2.0 | 4.0 | 0.00 | 0.00 | 0.00 | 73 | 679.3 |
| 20260507130019 | 44 | 204 | 2.0 | 4.0 | 0.00 | 0.00 | 0.00 | 73 | 679.3 |
| 20260507125019 | 42 | 198 | 2.0 | 3.0 | 0.00 | 0.00 | 0.00 | 76 | 679.3 |
| 20260507124039 | 41 | 201 | 1.0 | 2.0 | 0.00 | 0.00 | 0.00 | 76 | 679.3 |
| 20260507123019 | 41 | 164 | 2.0 | 4.0 | 0.00 | 0.00 | 0.00 | 77 | 679.3 |
| 20260507122040 | 40 | 200 | 2.0 | 3.0 | 0.00 | 0.00 | 0.00 | 77 | 679.2 |
| 20260507121020 | 39 | 168 | 2.0 | 4.0 | 0.00 | 0.00 | 0.00 | 77 | 679.2 |
| 20260507120020 | 38 | 162 | 2.0 | 3.0 | 0.00 | 0.00 | 0.00 | 77 | 679.2 |
| 20260507115020 | 38 | 154 | 2.0 | 5.0 | 0.00 | 0.00 | 0.00 | 77 | 679.2 |
| 20260507114020 | 37 | 159 | 3.0 | 4.0 | 0.00 | 0.00 | 0.00 | 77 | 679.2 |
| 20260507113040 | 37 | 151 | 2.0 | 3.0 | 0.00 | 0.00 | 0.00 | 77 | 679.2 |
| 20260507112021 | 36 | 166 | 2.0 | 3.0 | 0.00 | 0.00 | 0.00 | 77 | 679.2 |
| 20260507111020 | 36 | 157 | 2.0 | 3.0 | 0.00 | 0.00 | 0.00 | 77 | 679.2 |
| 20260507110041 | 35 | 181 | 1.0 | 2.0 | 0.00 | 0.00 | 0.00 | 77 | 679.2 |
| 20260507105021 | 35 | 158 | 2.0 | 3.0 | 0.00 | 0.00 | 0.00 | 77 | 679.1 |
| 20260507104021 | 34 | 156 | 1.0 | 2.0 | 0.00 | 0.00 | 0.00 | 77 | 679.1 |
| 20260507103117 | 34 | 167 | 1.0 | 2.0 | 0.00 | 0.00 | 0.00 | 77 | 679.1 |
| 20260507102017 | 34 | 169 | 1.0 | 2.0 | 0.00 | 0.00 | 0.00 | 77 | 679.1 |
| 20260507101038 | 35 | 0.0 | 0.0 | 0.00 | 0.00 | 0.00 | 76 | 679.1 | |
| 20260507100017 | 35 | 0.0 | 0.0 | 0.00 | 0.00 | 0.00 | 74 | 679.2 | |
| 20260507095037 | 35 | 0.0 | 0.0 | 0.00 | 0.00 | 0.00 | 74 | 679.2 | |
| 20260507094018 | 35 | 172 | 1.0 | 2.0 | 0.00 | 0.00 | 0.00 | 74 | 679.2 |
| 20260507093018 | 35 | 189 | 0.0 | 1.0 | 0.00 | 0.00 | 0.00 | 73 | 679.2 |
| 20260507092018 | 36 | 337 | 1.0 | 2.0 | 0.00 | 0.00 | 0.00 | 73 | 679.2 |
| 20260507091018 | 36 | 0.0 | 0.0 | 0.00 | 0.00 | 0.00 | 73 | 679.2 | |
| 20260507090018 | 36 | 151 | 1.0 | 4.0 | 0.00 | 0.00 | 0.00 | 73 | 679.2 |
| 20260507085018 | 37 | 152 | 2.0 | 4.0 | 0.00 | 0.00 | 0.00 | 72 | 679.2 |
| 20260507084019 | 37 | 3 | 1.0 | 2.0 | 0.00 | 0.00 | 0.00 | 72 | 679.2 |
| 20260507083019 | 37 | 72 | 1.0 | 2.0 | 0.00 | 0.00 | 0.00 | 72 | 679.2 |
| 20260507082019 | 38 | 30 | 1.0 | 2.0 | 0.00 | 0.00 | 0.00 | 72 | 679.2 |
| 20260507081019 | 38 | 36 | 0.0 | 1.0 | 0.00 | 0.00 | 0.00 | 73 | 679.2 |
| 20260507080019 | 38 | 12 | 0.0 | 1.0 | 0.00 | 0.00 | 0.00 | 72 | 679.2 |
| 20260507075020 | 39 | 39 | 0.0 | 2.0 | 0.00 | 0.00 | 0.00 | 72 | 679.2 |
| 20260507074019 | 39 | 6 | 2.0 | 4.0 | 0.00 | 0.00 | 0.00 | 73 | 679.2 |
| 20260507073020 | 40 | 352 | 2.0 | 4.0 | 0.00 | 0.00 | 0.00 | 75 | 679.3 |
| 20260507072020 | 40 | 0.0 | 0.0 | 0.00 | 0.00 | 0.00 | 76 | 679.3 | |
| 20260507071040 | 40 | 0.0 | 0.0 | 0.00 | 0.00 | 0.00 | 76 | 679.3 | |
| 20260507070020 | 40 | 226 | 1.0 | 1.0 | 0.00 | 0.00 | 0.00 | 76 | 679.3 |
| 20260507065021 | 40 | 282 | 0.0 | 1.0 | 0.00 | 0.00 | 0.00 | 73 | 679.3 |
| 20260507064020 | 40 | 272 | 1.0 | 1.0 | 0.00 | 0.00 | 0.00 | 73 | 679.3 |
| 20260507063020 | 41 | 295 | 0.0 | 1.0 | 0.00 | 0.00 | 0.00 | 73 | 679.3 |
| 20260507062021 | 41 | 325 | 2.0 | 3.0 | 0.00 | 0.00 | 0.00 | 73 | 679.3 |
| 20260507061041 | 41 | 277 | 1.0 | 2.0 | 0.00 | 0.00 | 0.00 | 73 | 679.3 |
| 20260507060021 | 41 | 335 | 1.0 | 2.0 | 0.00 | 0.00 | 0.00 | 72 | 679.3 |
| 20260507055021 | 42 | 336 | 1.0 | 3.0 | 0.00 | 0.00 | 0.00 | 73 | 679.3 |
| 20260507054021 | 42 | 218 | 1.0 | 3.0 | 0.00 | 0.00 | 0.00 | 73 | 679.3 |
| 20260507053021 | 42 | 214 | 2.0 | 3.0 | 0.00 | 0.00 | 0.00 | 72 | 679.3 |
| 20260507052021 | 42 | 214 | 3.0 | 4.0 | 0.00 | 0.00 | 0.00 | 72 | 679.3 |
| 20260507051022 | 42 | 225 | 2.0 | 3.0 | 0.00 | 0.00 | 0.00 | 72 | 679.3 |
| 20260507050022 | 42 | 225 | 2.0 | 4.0 | 0.00 | 0.00 | 0.00 | 70 | 679.3 |
| 20260507045102 | 42 | 221 | 3.0 | 5.0 | 0.00 | 0.00 | 0.00 | 69 | 679.3 |
| 20260507044042 | 42 | 219 | 3.0 | 4.0 | 0.00 | 0.00 | 0.00 | 68 | 679.3 |
| 20260507043043 | 42 | 222 | 3.0 | 5.0 | 0.00 | 0.00 | 0.00 | 67 | 679.3 |
| 20260507042022 | 42 | 224 | 2.0 | 4.0 | 0.00 | 0.00 | 0.00 | 66 | 679.3 |
| 20260507041022 | 42 | 221 | 3.0 | 4.0 | 0.00 | 0.00 | 0.00 | 65 | 679.3 |
| 20260507040023 | 42 | 218 | 2.0 | 4.0 | 0.00 | 0.00 | 0.00 | 65 | 679.3 |
| 20260507035022 | 42 | 215 | 3.0 | 3.0 | 0.00 | 0.00 | 0.00 | 65 | 679.3 |
| 20260507034023 | 42 | 221 | 2.0 | 3.0 | 0.00 | 0.00 | 0.00 | 68 | 679.3 |
| 20260507033023 | 42 | 202 | 1.0 | 1.0 | 0.00 | 0.00 | 0.00 | 69 | 679.3 |
| 20260507032023 | 42 | 0.0 | 0.0 | 0.00 | 0.00 | 0.00 | 66 | 679.3 | |
| 20260507031023 | 42 | 0.0 | 0.0 | 0.00 | 0.00 | 0.00 | 68 | 679.3 | |
| 20260507030023 | 42 | 0.0 | 0.0 | 0.00 | 0.00 | 0.00 | 65 | 679.4 | |
| 20260507025024 | 42 | 0.0 | 0.0 | 0.00 | 0.00 | 0.00 | 64 | 679.4 | |
| 20260507024024 | 43 | 0.0 | 0.0 | 0.00 | 0.00 | 0.00 | 64 | 679.4 | |
| 20260507023024 | 43 | 167 | 0.0 | 1.0 | 0.00 | 0.00 | 0.00 | 64 | 679.4 |
| 20260507022024 | 43 | 167 | 0.0 | 1.0 | 0.00 | 0.00 | 0.00 | 63 | 679.4 |
| 20260507021024 | 43 | 184 | 1.0 | 2.0 | 0.00 | 0.00 | 0.00 | 63 | 679.4 |
| 20260507020125 | 44 | 0.0 | 0.0 | 0.00 | 0.00 | 0.00 | 60 | 679.4 | |
| 20260507015024 | 44 | 0.0 | 0.0 | 0.00 | 0.00 | 0.00 | 59 | 679.4 | |
| 20260507014045 | 45 | 0.0 | 0.0 | 0.00 | 0.00 | 0.00 | 59 | 679.4 | |
| 20260507013025 | 45 | 0.0 | 0.0 | 0.00 | 0.00 | 0.00 | 57 | 679.4 | |
| 20260507012025 | 45 | 0.0 | 0.0 | 0.00 | 0.00 | 0.00 | 56 | 679.4 | |
| 20260507010025 | 46 | 0.0 | 0.0 | 0.00 | 0.00 | 0.00 | 55 | 679.5 | |
| 20260507005025 | 47 | 272 | 0.0 | 1.0 | 0.00 | 0.00 | 0.00 | 55 | 679.5 |
| 20260507004025 | 47 | 274 | 0.0 | 1.0 | 0.00 | 0.00 | 0.00 | 53 | 679.5 |
| 20260507003026 | 47 | 0.0 | 0.0 | 0.00 | 0.00 | 0.00 | 52 | 679.5 | |
| 20260507002025 | 48 | 0.0 | 0.0 | 0.00 | 0.00 | 0.00 | 51 | 679.5 | |
| 20260507001026 | 49 | 0 | 0.0 | 0.0 | 0.00 | 0.00 | 0.00 | 51 | 679.5 |
| 20260507000026 | 49 | 321 | 1.0 | 2.0 | 0.00 | 0.00 | 0.00 | 49 | 679.5 |
| 20260506235026 | 50 | 321 | 0.0 | 3.0 | 0.00 | 0.00 | 0.00 | 47 | 679.5 |
| 20260506234026 | 50 | 251 | 0.0 | 1.0 | 0.00 | 0.00 | 0.00 | 47 | 679.5 |
| 20260506233026 | 50 | 319 | 3.0 | 5.0 | 0.00 | 0.00 | 0.00 | 47 | 679.5 |
| 20260506232026 | 51 | 316 | 1.0 | 3.0 | 0.00 | 0.00 | 0.00 | 46 | 679.6 |
| 20260506231026 | 51 | 336 | 2.0 | 4.0 | 0.00 | 0.00 | 0.00 | 46 | 679.6 |
| 20260506230027 | 51 | 324 | 3.0 | 4.0 | 0.00 | 0.00 | 0.00 | 44 | 679.6 |
| 20260506225027 | 52 | 316 | 2.0 | 4.0 | 0.00 | 0.00 | 0.00 | 44 | 679.6 |
| 20260506224027 | 53 | 325 | 4.0 | 7.0 | 0.00 | 0.00 | 0.00 | 43 | 679.6 |
| 20260506223027 | 53 | 341 | 3.0 | 6.0 | 0.00 | 0.00 | 0.00 | 42 | 679.6 |
| 20260506222027 | 53 | 331 | 3.0 | 6.0 | 0.00 | 0.00 | 0.00 | 44 | 679.6 |
| 20260506221048 | 53 | 324 | 3.0 | 5.0 | 0.00 | 0.00 | 0.00 | 44 | 679.6 |
| 20260506220028 | 54 | 329 | 5.0 | 9.0 | 0.00 | 0.00 | 0.00 | 43 | 679.6 |
| 20260506215028 | 53 | 348 | 3.0 | 7.0 | 0.00 | 0.00 | 0.00 | 42 | 679.6 |
| 20260506214028 | 53 | 333 | 3.0 | 6.0 | 0.00 | 0.00 | 0.00 | 43 | 679.6 |
| 20260506213048 | 53 | 335 | 4.0 | 5.0 | 0.00 | 0.00 | 0.00 | 41 | 679.6 |
| 20260506212028 | 53 | 334 | 4.0 | 7.0 | 0.00 | 0.00 | 0.00 | 42 | 679.6 |
| 20260506211029 | 54 | 324 | 4.0 | 6.0 | 0.00 | 0.00 | 0.00 | 42 | 679.6 |
| 20260506210028 | 53 | 321 | 4.0 | 7.0 | 0.00 | 0.00 | 0.00 | 42 | 679.6 |
| 20260506205029 | 53 | 345 | 3.0 | 6.0 | 0.00 | 0.00 | 0.00 | 42 | 679.6 |
| 20260506204017 | 52 | 350 | 4.0 | 5.0 | 0.00 | 0.00 | 0.00 | 42 | 679.6 |
| 20260506203018 | 52 | 342 | 4.0 | 8.0 | 0.00 | 0.00 | 0.00 | 44 | 679.6 |
| 20260506202017 | 52 | 343 | 4.0 | 7.0 | 0.00 | 0.00 | 0.00 | 43 | 679.6 |
| 20260506201018 | 52 | 340 | 4.0 | 10.0 | 0.00 | 0.00 | 0.00 | 44 | 679.6 |
| 20260506200018 | 52 | 326 | 5.0 | 10.0 | 0.00 | 0.00 | 0.00 | 47 | 679.6 |
| 20260506195018 | 52 | 343 | 4.0 | 8.0 | 0.00 | 0.00 | 0.00 | 47 | 679.6 |
| 20260506194038 | 52 | 338 | 4.0 | 9.0 | 0.00 | 0.00 | 0.00 | 46 | 679.6 |
| 20260506193018 | 52 | 337 | 3.0 | 6.0 | 0.00 | 0.00 | 0.00 | 47 | 679.6 |
| 20260506192018 | 53 | 340 | 5.0 | 9.0 | 0.00 | 0.00 | 0.00 | 48 | 679.6 |